Flag for Germany Weather past 2 weeks in Aurich, Lower Saxony, Germany

Now
66 °F

Mild.


Feels Like: 66 °F
Forecast: 51 / 71 °F
Wind: 8 mph from North

Location: Wittmundhaven

Current Time: Aug 1, 2015 at 8:45:40 PM

Latest Report: Aug 1, 2015 at 7:20 PM


Visibility: N/A

Pressure: 30.01 "Hg

Humidity: 60%

Dew point: 52 °F

Location of AurichLocation

Historic Weather in Aurich — Graph

°F

Aurich temperature yesterday

Maximum temperature yesterday: 61 °F (at 3:20 PM)
Minimum temperature yesterday: 48 °F (at 11:20 PM)
Average temperature yesterday: 56 °F

Past Weeks' High & Low Weather Summary

 TemperatureHumidityPressure
High73 °F (Jul 17, 7:20 PM)100% (Jul 25, 5:20 AM)30.12 "Hg (Jul 25, 5:20 AM)
Low45 °F (Aug 1, 3:20 AM)43% (Aug 1, 3:20 PM)29.39 "Hg (Jul 25, 2:20 PM)
Average60 °F78%29.81 "Hg
* Reported Jul 17 7:20 PM — Aug 1 7:20 PM, Aurich, Weather by CustomWeather, © 2015

Note: Actual official high and low records may vary slightly from our data, if they occured in-between our weather recording intervals... More about our weather records

Advertising

Aurich weather history for previous 24 hours

 ConditionsComfort  
Time TempWeatherWind HumidityBarometerVisibility
7:20 PM
Sat, Aug 1
66 °FMild.8 mph60%30.01 "HgN/A
6:20 PM66 °FMild.8 mph64%30.01 "HgN/A
5:20 PM70 °FMild.5 mph46%30.01 "HgN/A
4:20 PM70 °FMild.5 mph43%30.01 "HgN/A
3:20 PM68 °FMild.6 mph43%30.01 "HgN/A
2:20 PM68 °FMild.5 mph46%30.01 "HgN/A
1:20 PM66 °FMild.7 mph46%30.01 "HgN/A
12:20 PM66 °FMild.6 mph49%30.04 "HgN/A
11:20 AM63 °FMild.7 mph56%30.04 "Hg6 mi
10:20 AM61 °FRefreshingly cool.8 mph59%30.04 "Hg6 mi
9:20 AM57 °FCool.6 mph67%30.04 "Hg4 mi
8:20 AM52 °FCool.6 mph82%30.04 "Hg4 mi
7:20 AM48 °FCool.3 mph87%30.04 "Hg5 mi
6:20 AM45 °FQuite cool.3 mph93%30.04 "Hg1 mi
5:20 AM45 °FQuite cool.2 mph93%30.07 "Hg0 mi
4:20 AM45 °FQuite cool.2 mph93%30.07 "Hg0 mi
3:20 AM45 °FQuite cool.No wind93%30.07 "Hg0 mi
2:20 AM46 °FCool.No wind93%30.07 "Hg0 mi
1:20 AM46 °FCool.No wind93%30.09 "Hg1 mi
12:20 AM48 °FCool.No wind87%30.09 "Hg4 mi
11:20 PM
Fri, Jul 31
48 °FCool.No wind94%30.07 "Hg6 mi
10:20 PM52 °FCool.No wind82%30.09 "HgN/A
9:20 PM55 °FCool.3 mph72%30.07 "HgN/A
8:20 PM59 °FRefreshingly cool.5 mph55%30.07 "HgN/A
Weather by CustomWeather, © 2015

See weather overviewHow to use our weather pages